| time (UTC) | temp F | wind direction | speed knots | gust knots | rain 1hr in | rain 24hr in | rain mn in | humidity % | barometer mb |
| 20260831221647 | 71 | 116 | 1.7 | 1.7 | 0.00 | 0.04 | 0.04 | 87 | 1022.2 |
| 20260831214644 | 73 | 258 | 4.3 | 4.3 | 0.04 | 0.04 | 0.04 | 80 | 1022.9 |
| 20260831211641 | 79 | 210 | 1.7 | 1.7 | 0.00 | 0.00 | 0.00 | 76 | 1022.2 |
| 20260831204638 | 80 | 254 | 1.7 | 1.7 | 0.00 | 0.00 | 0.00 | 71 | 1022.5 |
| 20260831201636 | 79 | 260 | 3.5 | 3.5 | 0.00 | 0.00 | 0.00 | 75 | 1022.9 |
| 20260831194636 | 78 | 229 | 1.7 | 1.7 | 0.00 | 0.00 | 0.00 | 77 | 1022.9 |
| 20260831191631 | 79 | 216 | 1.7 | 1.7 | 0.00 | 0.00 | 0.00 | 74 | 1023.3 |
| 20260831184629 | 79 | 236 | 1.7 | 1.7 | 0.00 | 0.00 | 0.00 | 74 | 1023.3 |
| 20260831181625 | 79 | 234 | 1.7 | 1.7 | 0.00 | 0.00 | 0.00 | 73 | 1023.7 |
| 20260831174625 | 78 | 235 | 2.6 | 2.6 | 0.00 | 0.00 | 0.00 | 75 | 1023.7 |
| 20260831171621 | 78 | 138 | 1.7 | 1.7 | 0.00 | 0.00 | 0.00 | 77 | 1023.7 |
| 20260831164616 | 78 | 246 | 2.6 | 2.6 | 0.00 | 0.00 | 0.00 | 79 | 1024.0 |
| 20260831161613 | 77 | 240 | 1.7 | 1.7 | 0.00 | 0.00 | 0.00 | 76 | 1024.0 |
| 20260831154614 | 78 | 272 | 0.0 | 0.0 | 0.00 | 0.00 | 0.00 | 75 | 1024.0 |
| 20260831151611 | 76 | 260 | 1.7 | 1.7 | 0.00 | 0.00 | 0.00 | 77 | 1024.3 |
| 20260831144607 | 76 | 269 | 2.6 | 2.6 | 0.00 | 0.00 | 0.00 | 79 | 1024.3 |
| 20260831141605 | 78 | 278 | 0.0 | 0.0 | 0.00 | 0.00 | 0.00 | 71 | 1024.3 |
| 20260831134602 | 73 | 287 | 1.7 | 1.7 | 0.00 | 0.00 | 0.00 | 85 | 1024.7 |
| 20260831131557 | 73 | 266 | 1.7 | 1.7 | 0.00 | 0.00 | 0.00 | 85 | 1024.7 |
| 20260831124553 | 71 | 266 | 0.0 | 0.0 | 0.00 | 0.00 | 0.00 | 89 | 1024.3 |
| 20260831121549 | 69 | 220 | 0.0 | 0.0 | 0.00 | 0.00 | 0.00 | 91 | 1024.3 |
| 20260831114547 | 68 | 220 | 0.0 | 0.0 | 0.00 | 0.00 | 0.00 | 94 | 1024.0 |
| 20260831111546 | 67 | 138 | 0.0 | 0.0 | 0.00 | 0.00 | 0.00 | 95 | 1024.3 |
| 20260831104545 | 67 | 138 | 0.0 | 0.0 | 0.00 | 0.00 | 0.00 | 95 | 1024.0 |
| 20260831101545 | 67 | 138 | 0.0 | 0.0 | 0.00 | 0.00 | 0.00 | 96 | 1024.0 |
| 20260831094540 | 67 | 138 | 0.0 | 0.0 | 0.00 | 0.00 | 0.00 | 96 | 1023.7 |
| 20260831091536 | 67 | 138 | 0.0 | 0.0 | 0.00 | 0.00 | 0.00 | 95 | 1022.9 |
| 20260831084532 | 67 | 138 | 0.0 | 0.0 | 0.00 | 0.00 | 0.00 | 95 | 1022.9 |
| 20260831081532 | 67 | 138 | 0.0 | 0.0 | 0.00 | 0.00 | 0.00 | 96 | 1022.9 |
| 20260831074531 | 68 | 138 | 0.0 | 0.0 | 0.00 | 0.00 | 0.00 | 95 | 1022.9 |
| 20260831071527 | 68 | 138 | 0.0 | 0.0 | 0.00 | 0.00 | 0.00 | 94 | 1022.9 |
| 20260831064527 | 69 | 138 | 0.0 | 0.0 | 0.00 | 0.00 | 0.00 | 93 | 1023.3 |
| 20260831061523 | 71 | 138 | 1.7 | 1.7 | 0.00 | 0.00 | 0.00 | 88 | 1022.9 |
| 20260831054522 | 71 | 42 | 0.0 | 0.0 | 0.00 | 0.00 | 0.00 | 88 | 1023.3 |
| 20260831051518 | 71 | 42 | 0.0 | 0.0 | 0.00 | 0.00 | 0.00 | 89 | 1023.7 |
| 20260831044518 | 72 | 42 | 0.0 | 0.0 | 0.00 | 0.00 | 0.00 | 87 | 1023.7 |
| 20260831041515 | 72 | 264 | 0.0 | 0.0 | 0.00 | 0.00 | 0.00 | 92 | 1023.7 |
| 20260831034515 | 73 | 127 | 0.9 | 0.9 | 0.00 | 0.00 | 0.00 | 94 | 1023.3 |
| 20260831031513 | 73 | 217 | 0.0 | 0.0 | 0.00 | 0.00 | 0.00 | 93 | 1024.0 |
| 20260831024512 | 73 | 266 | 0.0 | 0.0 | 0.00 | 0.00 | 0.00 | 92 | 1024.0 |
| 20260831021509 | 74 | 299 | 0.0 | 0.0 | 0.00 | 0.00 | 0.00 | 90 | 1024.0 |
| 20260831014510 | 74 | 299 | 0.0 | 0.0 | 0.00 | 0.00 | 0.00 | 88 | 1024.0 |
| 20260831011508 | 75 | 54 | 0.0 | 0.0 | 0.00 | 0.00 | 0.00 | 88 | 1023.3 |
| 20260831004503 | 76 | 54 | 0.0 | 0.0 | 0.00 | 0.00 | 0.00 | 86 | 1022.9 |
| 20260831001502 | 76 | 54 | 0.0 | 0.0 | 0.00 | 0.00 | 0.00 | 83 | 1022.5 |
| 20260830234501 | 78 | 76 | 0.0 | 0.0 | 0.00 | 0.00 | 0.00 | 80 | 1022.2 |
| 20260830231459 | 79 | 76 | 0.0 | 0.0 | 0.00 | 0.00 | 0.00 | 79 | 1022.5 |
| 20260830224458 | 80 | 84 | 1.7 | 1.7 | 0.00 | 0.00 | 0.00 | 72 | 1022.2 |